Location: Observatorio Ernesto Juarez Davis
(29.2175°N, 110.7606°W)
Time: 15:56:32
(UTC-07:00)

Hubble Space Telescope - Pass Details

Date: 29 July 2019
Orbit: 536 x 540 km, 28.5° (Epoch: 21 August)

Event Time Altitude Azimuth Distance (km) Brightness Sun altitude
Exits shadow 04:32:00 25° 241° (WSW) 1,092 1.7 -14.4°
Maximum altitude 04:34:11 61° 169° (S) 608 0.9 -14.0°
Drops below altitude 10° 04:38:16 10° 89° (E) 1,784 4.4 -13.2°
Sets 04:40:33 0° 85° (E) 2,675 5.6 -12.8°
